Newark Heath, OH

3:57 AM EST on December 14, 2017 (GMT -0500)
Newark Heath

Weather History for KVTA - May, 2013

Change the Weather History Date:

Tuesday, May 21, 2013

  Actual Average Record
Temperature  
Mean Temperature 76 °F -  
Max Temperature 84 °F 75 °F 90 °F (1941)
Min Temperature 69 °F 51 °F 34 °F (2002)
Cooling Degree Days 10    
Growing Degree Days 26 (Base 50)    
Moisture  
Dew Point 65 °F    
Average Humidity 72    
Maximum Humidity 93    
Minimum Humidity 52    
Precipitation  
Precipitation 0.01 in - - ()
Sea Level Pressure  
Sea Level Pressure 29.87 in    
Wind  
Wind Speed 5 mph (SSW)    
Max Wind Speed 13 mph    
Max Gust Speed 28 mph    
Visibility 9 miles    
Events Thunderstorm    
Averages and records for this station are not official NWS values.
T = Trace of Precipitation, MM = Missing Value Source: NWS Daily Summary

Daily Weather History Graph

Daily Weather History Graph

Search for Another Location

Airport or City:

Trip Planner

Search our weather history database for the weather conditions in past years. The results will help you decide how hot, cold, wet, or windy it might be!

Date:

Astronomy

May. 21, 2013 Rise Set
Actual Time 6:09 AM EDT 8:44 PM EDT
Civil Twilight 5:38 AM EDT 9:15 PM EDT
Nautical Twilight 4:59 AM EDT 9:54 PM EDT
Astronomical Twilight 4:15 AM EDT 10:38 PM EDT
Moon 4:56 PM EDT (5/21) 3:36 AM EDT (5/21)
Length of Visible Light 15h 37m
Length of Day
14h 34m
Waxing Gibbous, 84% of the Moon is Illuminated
May 21
Waxing Gibbous
May 25
Full
May 31
Last Quarter
Jun 8
New
Jun 16
First Quarter

Hourly Weather History & Observations

Time (EDT) Temp. Heat Index Dew Point Humidity Pressure Visibility Wind Dir Wind Speed Gust Speed Precip Events Conditions
12:54 AM 72.0 °F - 69.1 °F 91% 29.91 in 7.0 mi Calm Calm - N/A   Clear
1:54 AM 71.1 °F - 68.0 °F 90% 29.90 in 7.0 mi SSE 4.6 mph - N/A   Clear
2:54 AM 70.0 °F - 68.0 °F 93% 29.90 in 7.0 mi South 4.6 mph - N/A   Clear
3:54 AM 69.1 °F - 66.9 °F 93% 29.90 in 5.0 mi Calm Calm - N/A   Mostly Cloudy
4:54 AM 69.1 °F - 66.9 °F 93% 29.90 in 7.0 mi Calm Calm - N/A   Mostly Cloudy
5:54 AM 69.1 °F - 66.0 °F 90% 29.90 in 8.0 mi SSE 5.8 mph - N/A   Clear
6:54 AM 69.1 °F - 66.0 °F 90% 29.91 in 6.0 mi Calm Calm - N/A   Clear
7:54 AM 71.1 °F - 66.9 °F 87% 29.90 in 8.0 mi South 4.6 mph - N/A   Clear
8:54 AM 72.0 °F - 66.9 °F 84% 29.91 in 10.0 mi South 8.1 mph - N/A   Clear
9:54 AM 73.9 °F - 68.0 °F 82% 29.93 in 10.0 mi SSW 11.5 mph - N/A   Clear
10:54 AM 75.0 °F - 66.9 °F 76% 29.93 in 10.0 mi SSW 9.2 mph - N/A   Clear
11:54 AM 79.0 °F - 64.9 °F 62% 29.91 in 10.0 mi SW 9.2 mph - N/A   Clear
12:54 PM 82.0 °F 84.1 °F 66.0 °F 58% 29.86 in 10.0 mi SSE 11.5 mph 16.1 mph N/A   Clear
1:54 PM 82.9 °F 85.4 °F 66.9 °F 58% 29.84 in 10.0 mi SSE 12.7 mph - N/A   Clear
2:54 PM 82.0 °F 83.4 °F 64.0 °F 54% 29.84 in 10.0 mi SW 11.5 mph 27.6 mph N/A   Partly Cloudy
3:54 PM 82.0 °F 83.1 °F 63.0 °F 52% 29.83 in 10.0 mi SSW 11.5 mph - N/A   Clear
4:54 PM 82.9 °F 84.6 °F 64.9 °F 54% 29.82 in 10.0 mi SSW 11.5 mph - N/A   Scattered Clouds
5:54 PM 77.0 °F - 62.1 °F 60% 29.82 in 10.0 mi SW 9.2 mph - 0.01 in Thunderstorm Mostly Cloudy
6:26 PM 80.6 °F 82.3 °F 64.4 °F 58% 29.83 in 10.0 mi SW 8.1 mph - N/A   Clear
6:54 PM 80.1 °F 81.7 °F 64.0 °F 58% 29.81 in 10.0 mi SW 8.1 mph - N/A   Clear
7:54 PM 79.0 °F - 64.0 °F 60% 29.81 in 10.0 mi SSW 6.9 mph - N/A   Clear
8:54 PM 77.0 °F - 63.0 °F 62% 29.81 in 10.0 mi SSW 5.8 mph - N/A   Partly Cloudy
9:54 PM 73.9 °F - 63.0 °F 68% 29.81 in 10.0 mi SSW 4.6 mph - N/A   Clear
10:54 PM 75.0 °F - 64.0 °F 69% 29.84 in 10.0 mi South 3.5 mph - N/A   Mostly Cloudy
11:54 PM 75.0 °F - 62.1 °F 64% 29.83 in 10.0 mi SSW 11.5 mph 19.6 mph N/A   Mostly Cloudy